Regional Weather Roundup
Issued by NWS Wilmington, NC

Home | Current Version | Previous Version | Text Only | Print | Product List | Glossary On
Versions: 1 2 3 4 5 6 7 8 9 10 11 12 13 14 15 16 17 18 19 20 21 22 23 24 25 26 27 28 29 30 31 32 33 34 35 36 37 38 39 40 41 42 43 44 45 46 47 48 49 50
000
ASUS42 KILM 200410
RWRILM
RWRILM
REGIONAL HOURLY WEATHER ROUNDUP
NATIONAL WEATHER SERVICE WILMINGTON NC
1200 AM EDT MON OCT 20 2014

NOTE: "FAIR" INDICATES FEW OR NO CLOUDS BELOW 12,000 FEET WITH NO
SIGNIFICANT WEATHER AND/OR OBSTRUCTIONS TO VISIBILITY.

...............WFO WILMINGTON COUNTY WARNING AREA...............

......COASTAL NC AND SC COUNTIES......

CITY           SKY/WX    TMP DP  RH WIND       PRES   REMARKS
WILMINGTON     NOT AVBL
SOUTHPORT      NOT AVBL
N MYRTLE BEACH NOT AVBL
MYRTLE BEACH   NOT AVBL

......INLAND NC AND SC COUNTIES.......

CITY           SKY/WX    TMP DP  RH WIND       PRES   REMARKS
LUMBERTON      NOT AVBL
ELIZABETHTOWN  NOT AVBL
WHITEVILLE     NOT AVBL
FLORENCE       NOT AVBL
DARLINGTON     NOT AVBL

....................REST OF NORTH CAROLINA......................

.........EASTERN NC.........

CITY           SKY/WX    TMP DP  RH WIND       PRES   REMARKS
CAPE HATTERAS  NOT AVBL
JACKSONVILLE   NOT AVBL
MOREHEAD CITY  NOT AVBL
KENANSVILLE    NOT AVBL
NEW BERN       NOT AVBL
ELIZABETH CITY NOT AVBL

.........CENTRAL NC.........

CITY           SKY/WX    TMP DP  RH WIND       PRES   REMARKS
RALEIGH DURHAM NOT AVBL
ROCKY MOUNT    NOT AVBL
ROANOKE RAPIDS NOT AVBL
FAYETTEVILLE   NOT AVBL
HOFFMAN        NOT AVBL

.........WESTERN NC.........

CITY           SKY/WX    TMP DP  RH WIND       PRES   REMARKS
CHARLOTTE      NOT AVBL
GREENSBORO     NOT AVBL
HICKORY        NOT AVBL
BOONE          NOT AVBL
ASHEVILLE      NOT AVBL

.....................REST OF SOUTH CAROLINA.....................

.........EASTERN SC.........

CITY           SKY/WX    TMP DP  RH WIND       PRES   REMARKS
CHARLESTON     NOT AVBL
BEAUFORT MCAS  FAIR      54  50  86 CALM      30.13S
HILTON HEAD    NOT AVBL

.........CENTRAL SC.........

CITY           SKY/WX    TMP DP  RH WIND       PRES   REMARKS
COLUMBIA       NOT AVBL
ORANGEBURG     NOT AVBL
SUMTER SHAW    NOT AVBL

.........WESTERN SC.........

CITY           SKY/WX    TMP DP  RH WIND       PRES   REMARKS
GREENVILLE     NOT AVBL
ROCK HILL      NOT AVBL
ANDERSON       NOT AVBL
CLEMSON        NOT AVBL
GREENWOOD      NOT AVBL


...................COASTAL AND OFFSHORE REPORTS..................

................LOCAL PIERS AND NC RESERVE................


STATION/POSITION TIME  SKY/WX   TEMP    WIND        PRES    VSBY
                                AIR SEA DIR/SP/G
                 (UTC)          (F)     (DEG/KT/KT) (MB)    (MI)
JOHNY MRCER PIER 0300            58 75  350/  5/  6 1020.2R
NC RESRV MASNBRO 0300            54        CALM     1020.0S
OCEAN CREST PIER 0300            56 72   10/  7/  8 1019.8R
SPRINGMAID  PIER 0300            59 72  350/  4/  5 1020.2R


................COASTAL AND OFFSHORE BUOYS................


STATION/POSITION TIME  SKY/WX   TEMP    WIND        PRES    VSBY
                                AIR SEA DIR/SP/G
                 (UTC)          (F)     (DEG/KT/KT) (MB)    (MI)
DIMNDSHOAL 41025 0300            62     350/ 16/ 19 1019.7S
WVE H/P(F/S)=  4/ 8 WND WVE H/P(F/S)=  2/ 6 SWL H/P/D(F/S/D)=  3/ 10/ 8

CAPE LOOKOUT     0300            60     360/  8/  9 1020.3R
ONSLOW BAY 41036 0300            65 76   30/  8/ 14 1019.9R
WVE H/P(F/S)=  2/11 WND WVE H/P(F/S)=  2/ 3 SWL H/P/D(F/S/D)=  2/120/11

5 WRITEBCH 41038 0300            61 73   30/  8/ 10   N/A
MASONBORO  41110 0300               74                N/A
WVE H/P(F/S)=  2/11 WND WVE H/P(F/S)=  2/ 9 SWL H/P/D(F/S/D)=  2/110/11

WILM HARBR 41108 0300               73                N/A
WVE H/P(F/S)=  2/13 WND WVE H/P(F/S)=  2/ 9

27WRITEBCH 41037 0300            62 76   40/ 10/ 12 1020.4R
FRYING PAN 41013 0300            66 75   20/  8/ 12 1021.0R
WVE H/P(F/S)=  2/11 WND WVE H/P(F/S)=  2/ 4 SWL H/P/D(F/S/D)=  2/100/11

SUNST NRSH 41024 0300            63      60/ 12/ 14 1020.2R
CAPRS NRSH 41029 0300            66      20/  6/  6   N/A
EDISTO     41004 0300            69 80   50/  8/ 12 1019.7R
WVE H/P(F/S)=  3/12 WND WVE H/P(F/S)=  2/ 4 SWL H/P/D(F/S/D)=  3/12



..........OFFSHORE BUOYS BEYOND 100 NM OFFSHORE...........
.....IN A TRIANGLE---HAT TO BERMUDA TO BAHAMAS TO HAT.....


STATION/POSITION TIME  SKY/WX   TEMP    WIND        PRES    VSBY
                                AIR SEA DIR/SP/G
                 (UTC)          (F)     (DEG/KT/KT) (MB)    (MI)
150E HAT   41001 NOT AVBL
W BERMUDA  41048 NOT AVBL
ATLANTIC S 41049 0239            80 81   10/  6/  8 1015.9R
WVE H/P(F/S)=  5/10 SWL H/P/D(F/S/D)=  5/ 20/10

E BAHAMAS  41046 NOT AVBL
NE BAHAMAS 41047 0241            80 82  340/  4/  8 1016.6
WVE H/P(F/S)=  4/ 8 WND WVE H/P(F/S)=  2/ 4 SWL H/P/D(F/S/D)=  3/ 80/ 8

120E CANVRL41010 0300            77 80   40/ 16/ 19 1017.5S
WVE H/P(F/S)=  5/ 7 WND WVE H/P(F/S)=  5/ 7 SWL H/P/D(F/S/D)=  2/ 60/10


END



USA.gov is the U.S. government's official web portal to all federal, state and local government web resources and services.